DW3560 Weather Reports


time (UTC)temp
C
wind
direction
speed
KPH
gust
KPH
rain 1hr
cm
rain 24hr
cm
rain mn
cm
humidity
%
barometer
mb
20260507082002 11 237 0.0 4.8 0.00 0.00 0.00 93 1019.2
20260507081502 11 241 0.0 3.2 0.00 0.00 0.00 93 1019.2
20260507081023 11 244 0.0 3.2 0.00 0.00 0.00 93 1019.2
20260507080502 11 244 0.0 3.2 0.00 0.00 0.00 93 1019.2
20260507080002 11 242 1.6 4.8 0.00 0.00 0.00 93 1019.2
20260507075501 11 241 0.0 4.8 0.00 0.00 0.00 93 1019.2
20260507075001 11 230 0.0 3.2 0.00 0.00 0.00 93 1019.2
20260507074502 11 232 0.0 4.8 0.00 0.00 0.00 92 1019.2
20260507074002 11 241 0.0 4.8 0.00 0.00 0.00 92 1019.2
20260507073502 11 329 0.0 1.6 0.00 0.00 0.00 92 1019.2
20260507073002 11 329 0.0 1.6 0.00 0.00 0.00 92 1019.2
20260507072502 11 330 0.0 3.2 0.00 0.00 0.00 92 1019.2
20260507072002 11 330 0.0 3.2 0.00 0.00 0.00 92 1019.2
20260507071523 11 331 0.0 1.6 0.00 0.00 0.00 92 1019.2
20260507071002 11 331 0.0 1.6 0.00 0.00 0.00 92 1019.2
20260507070503 11 331 0.0 3.2 0.00 0.00 0.00 92 1019.2
20260507070008 11 328 0.0 4.8 0.00 0.00 0.00 92 1019.2
20260507065502 11 325 0.0 4.8 0.00 0.00 0.00 92 1019.2
20260507065023 12 311 0.0 4.8 0.00 0.00 0.00 92 1019.2
20260507064501 12 302 0.0 4.8 0.00 0.00 0.00 92 1019.2
20260507064002 12 285 0.0 3.2 0.00 0.00 0.00 92 1019.2
20260507063502 12 328 0.0 4.8 0.00 0.00 0.00 92 1019.2
20260507063002 12 332 1.6 8.0 0.00 0.00 0.00 91 1019.2
20260507062502 12 325 0.0 8.0 0.00 0.00 0.00 91 1019.2
20260507062002 12 295 0.0 4.8 0.00 0.00 0.00 91 1019.2
20260507061502 12 267 0.0 1.6 0.00 0.00 0.00 91 1019.2
20260507061002 12 259 0.0 1.6 0.00 0.00 0.00 91 1019.2
20260507060502 12 259 0.0 1.6 0.00 0.00 0.00 91 1019.2
20260507060002 12 259 0.0 1.6 0.00 0.00 0.00 91 1019.2
20260507055502 12 259 0.0 1.6 0.00 0.00 0.00 91 1019.2
20260507055002 12 259 0.0 1.6 0.00 0.00 0.00 91 1019.2
20260507054502 12 261 0.0 1.6 0.00 0.00 0.00 91 1019.2
20260507054023 12 247 0.0 4.8 0.00 0.00 0.00 91 1019.2
20260507053502 12 237 0.0 4.8 0.00 0.00 0.00 91 1019.2
20260507053001 12 221 0.0 4.8 0.00 0.00 0.00 90 1019.2
20260507052502 12 221 0.0 4.8 0.00 0.00 0.00 90 1019.2
20260507052002 12 231 1.6 8.0 0.00 0.00 0.00 90 1019.2
20260507051501 12 227 1.6 8.0 0.00 0.00 0.00 90 1018.5
20260507051002 12 217 1.6 6.4 0.00 0.00 0.00 90 1018.5
20260507050502 12 209 1.6 4.8 0.00 0.00 0.00 90 1018.5
20260507050023 12 197 1.6 6.4 0.00 0.00 0.00 89 1018.5
20260507045502 12 199 0.0 6.4 0.00 0.00 0.00 89 1018.5
20260507045002 12 197 0.0 4.8 0.00 0.00 0.00 89 1018.5
20260507044523 12 197 1.6 4.8 0.00 0.00 0.00 89 1018.5
20260507044002 12 198 1.6 6.4 0.00 0.00 0.00 89 1018.5
20260507043502 12 199 1.6 6.4 0.00 0.00 0.00 88 1018.5
20260507043002 12 202 1.6 4.8 0.00 0.00 0.00 88 1018.5
20260507042502 12 204 0.0 4.8 0.00 0.00 0.00 88 1018.5
20260507042002 12 225 1.6 6.4 0.00 0.00 0.00 88 1018.5
20260507041523 12 250 1.6 6.4 0.00 0.00 0.00 87 1018.5
20260507041002 12 299 0.0 3.2 0.00 0.00 0.00 87 1018.5
20260507040502 12 303 0.0 3.2 0.00 0.00 0.00 87 1018.5
20260507040002 13 304 0.0 3.2 0.00 0.00 0.00 87 1018.5
20260507035523 13 304 0.0 1.6 0.00 0.00 0.00 86 1018.5
20260507035002 13 311 0.0 1.6 0.00 0.00 0.00 86 1018.5
20260507034502 13 312 0.0 3.2 0.00 0.00 0.00 86 1018.5
20260507034002 13 316 0.0 3.2 0.00 0.00 0.00 86 1018.5
20260507033502 13 338 0.0 1.6 0.00 0.00 0.00 86 1018.5
20260507033002 13 339 0.0 3.2 0.00 0.00 0.00 85 1018.5
20260507032502 13 340 0.0 3.2 0.00 0.00 0.00 85 1018.5
20260507032002 13 341 0.0 3.2 0.00 0.00 0.00 85 1018.5
20260507031502 13 334 0.0 3.2 0.00 0.00 0.00 85 1020.1
20260507031002 13 329 0.0 3.2 0.00 0.00 0.00 84 1020.1
20260507030502 13 324 0.0 3.2 0.00 0.00 0.00 84 1020.1
20260507030003 14 327 0.0 4.8 0.00 0.00 0.00 84 1020.1
20260507025523 14 328 0.0 4.8 0.00 0.00 0.00 83 1020.1
20260507025002 14 333 0.0 3.2 0.00 0.00 0.00 83 1020.1
20260507024502 14 340 0.0 4.8 0.00 0.00 0.00 83 1020.1
20260507024002 14 349 1.6 4.8 0.00 0.00 0.00 82 1020.1
20260507023502 15 352 1.6 6.4 0.00 0.00 0.00 82 1020.1
20260507023002 15 340 1.6 8.0 0.00 0.00 0.00 82 1020.1
20260507022502 15 316 0.0 8.0 0.00 0.00 0.00 82 1020.1
20260507022002 15 325 0.0 4.8 0.00 0.00 0.00 81 1020.1
20260507021502 15 296 0.0 3.2 0.00 0.00 0.00 81 1020.1
20260507021002 15 245 0.0 3.2 0.00 0.00 0.00 81 1020.1
20260507020502 15 267 0.0 8.0 0.00 0.00 0.00 80 1020.1
20260507020002 15 326 1.6 9.7 0.00 0.00 0.00 80 1020.1
20260507015523 16 357 1.6 9.7 0.00 0.00 0.00 79 1020.1
20260507015002 16 176 0.0 4.8 0.00 0.00 0.00 78 1020.1
20260507014502 16 336 0.0 3.2 0.00 0.00 0.00 78 1020.1
20260507014002 16 311 1.6 4.8 0.00 0.00 0.00 78 1020.1
20260507013502 17 274 1.6 4.8 0.00 0.00 0.00 77 1020.1
20260507013002 17 267 1.6 8.0 0.00 0.00 0.00 77 1020.1
20260507012502 17 260 1.6 8.0 0.00 0.00 0.00 75 1020.1
20260507012002 17 203 1.6 4.8 0.00 0.00 0.00 75 1020.1
20260507011502 18 358 1.6 8.0 0.00 0.00 0.00 74 1020.1
20260507011023 18 348 1.6 9.7 0.00 0.00 0.00 73 1020.1
20260507010502 18 349 1.6 9.7 0.00 0.00 0.00 72 1020.1
20260507010002 19 2 1.6 12.9 0.00 0.00 0.00 71 1020.1
20260507005502 19 352 1.6 12.9 0.00 0.00 0.00 71 1020.1
20260507005002 19 345 3.2 12.9 0.00 0.00 0.00 71 1020.1
20260507004502 20 342 3.2 8.0 0.00 0.00 0.00 71 1020.1
20260507004023 20 344 3.2 9.7 0.00 0.00 0.00 70 1020.1
20260507003502 20 346 3.2 9.7 0.00 0.00 0.00 70 1020.1
20260507003002 20 333 1.6 6.4 0.00 0.00 0.00 70 1020.1
20260507002502 20 331 1.6 12.9 0.00 0.00 0.00 70 1020.1
20260507002023 20 339 3.2 14.5 0.00 0.00 0.00 70 1020.1
20260507001502 20 341 3.2 14.5 0.00 0.00 0.00 70 1020.1
20260507001023 20 342 1.6 12.9 0.00 0.00 0.00 69 1020.1
20260507000502 20 345 3.2 8.0 0.00 0.00 0.00 69 1020.1
20260507000002 20 351 3.2 8.0 0.00 0.00 0.00 68 1020.1
20260506235502 20 345 3.2 16.1 0.00 0.00 0.00 68 1020.1
20260506235023 20 341 3.2 16.1 0.00 0.00 0.00 68 1020.1
20260506234502 21 351 3.2 16.1 0.00 0.00 0.00 68 1020.1
20260506234002 21 337 1.6 8.0 0.00 0.00 0.00 68 1020.1
20260506233523 21 324 1.6 8.0 0.00 0.00 0.00 68 1020.1
20260506233002 21 329 1.6 8.0 0.00 0.00 0.00 67 1020.1
20260506232502 21 337 1.6 12.9 0.00 0.00 0.00 67 1020.1
20260506232002 21 345 3.2 12.9 0.00 0.00 0.00 67 1020.1
20260506231502 21 345 3.2 14.5 0.00 0.00 0.00 67 1020.1
20260506231002 21 337 3.2 14.5 0.00 0.00 0.00 67 1020.1
20260506230502 21 342 3.2 14.5 0.00 0.00 0.00 67 1020.1
20260506230002 21 347 4.8 14.5 0.00 0.00 0.00 66 1020.1
20260506225502 22 339 3.2 12.9 0.00 0.00 0.00 66 1020.1
20260506225023 22 336 1.6 12.9 0.00 0.00 0.00 66 1020.1
20260506224502 22 340 3.2 14.5 0.00 0.00 0.00 67 1020.1
20260506224002 22 337 3.2 14.5 0.00 0.00 0.00 66 1020.1
20260506223502 22 332 3.2 9.7 0.00 0.00 0.00 66 1020.1
20260506223002 22 337 3.2 9.7 0.00 0.00 0.00 66 1020.1
20260506222502 22 342 4.8 12.9 0.00 0.00 0.00 66 1020.1
20260506222002 22 335 3.2 12.9 0.00 0.00 0.00 66 1020.1
20260506221502 22 230 1.6 9.7 0.00 0.00 0.00 66 1020.1
20260506221002 22 223 1.6 12.9 0.00 0.00 0.00 66 1020.1
20260506220502 22 251 1.6 19.3 0.00 0.00 0.00 66 1020.1
20260506220003 22 258 1.6 19.3 0.00 0.00 0.00 65 1020.1
20260506215502 22 275 1.6 6.4 0.00 0.00 0.00 66 1020.1
20260506215002 22 283 1.6 8.0 0.00 0.00 0.00 64 1020.1
20260506214502 22 349 1.6 14.5 0.00 0.00 0.00 64 1020.1
20260506214002 22 347 3.2 14.5 0.00 0.00 0.00 64 1020.1
20260506213502 22 352 1.6 14.5 0.00 0.00 0.00 64 1020.1
20260506213023 22 358 1.6 12.9 0.00 0.00 0.00 65 1020.1
20260506212502 22 358 1.6 12.9 0.00 0.00 0.00 65 1020.1
20260506212002 22 3 1.6 8.0 0.00 0.00 0.00 65 1020.1
20260506211523 22 346 3.2 12.9 0.00 0.00 0.00 65 1020.1
20260506211002 21 340 3.2 12.9 0.00 0.00 0.00 65 1020.1
20260506210502 21 340 1.6 9.7 0.00 0.00 0.00 67 1020.1
20260506210002 21 356 3.2 16.1 0.00 0.00 0.00 67 1020.1
20260506205502 21 355 3.2 16.1 0.00 0.00 0.00 66 1020.1
20260506205002 21 344 3.2 9.7 0.00 0.00 0.00 68 1020.1
20260506204502 20 346 3.2 9.7 0.00 0.00 0.00 67 1020.1
20260506204002 20 333 1.6 9.7 0.00 0.00 0.00 69 1020.1
20260506203502 20 332 1.6 8.0 0.00 0.00 0.00 69 1020.1
20260506203002 20 345 3.2 16.1 0.00 0.00 0.00 69 1020.1
20260506202523 20 345 4.8 16.1 0.00 0.00 0.00 68 1020.1
20260506202002 20 342 3.2 9.7 0.00 0.00 0.00 69 1020.1
20260506201502 20 339 3.2 9.7 0.00 0.00 0.00 70 1020.1
20260506201023 20 324 1.6 8.0 0.00 0.00 0.00 70 1020.1
20260506200502 20 345 3.2 9.7 0.00 0.00 0.00 71 1020.1
20260506200002 19 350 3.2 12.9 0.00 0.00 0.00 69 1020.1
20260506195502 19 344 3.2 12.9 0.00 0.00 0.00 71 1020.1
20260506195002 19 345 3.2 9.7 0.00 0.00 0.00 71 1020.1
20260506194523 18 344 3.2 9.7 0.00 0.00 0.00 72 1020.1
20260506194002 18 334 1.6 9.7 0.00 0.00 0.00 71 1020.1
20260506193502 18 317 3.2 9.7 0.00 0.00 0.00 72 1020.1
20260506193002 18 321 3.2 9.7 0.00 0.00 0.00 73 1020.1
20260506192502 18 339 3.2 8.0 0.00 0.00 0.00 73 1020.1
20260506192023 17 345 3.2 8.0 0.00 0.00 0.00 74 1020.1
20260506191502 17 315 1.6 8.0 0.00 0.00 0.00 74 1018.7
20260506191023 17 305 1.6 6.4 0.00 0.00 0.00 74 1018.7
20260506190502 17 251 1.6 6.4 0.00 0.00 0.00 76 1018.7
20260506190002 17 218 1.6 6.4 0.00 0.00 0.00 75 1018.7
20260506185502 17 247 1.6 6.4 0.00 0.00 0.00 74 1018.7
20260506185002 17 253 1.6 6.4 0.00 0.00 0.00 74 1018.7
20260506184502 17 260 1.6 9.7 0.00 0.00 0.00 74 1018.7
20260506184002 17 263 1.6 9.7 0.00 0.00 0.00 74 1018.7
20260506183503 17 239 1.6 9.7 0.00 0.00 0.00 73 1018.7
20260506183002 17 219 3.2 9.7 0.00 0.00 0.00 74 1018.7
20260506182502 17 227 3.2 9.7 0.00 0.00 0.00 73 1018.7
20260506182002 17 314 1.6 6.4 0.00 0.00 0.00 74 1018.7
20260506181502 17 347 3.2 8.0 0.00 0.00 0.00 75 1018.7
20260506181023 17 340 3.2 8.0 0.00 0.00 0.00 74 1018.7
20260506180502 17 316 1.6 6.4 0.00 0.00 0.00 75 1018.7
20260506180002 17 340 1.6 9.7 0.00 0.00 0.00 75 1018.7
20260506175502 17 345 3.2 9.7 0.00 0.00 0.00 75 1018.7
20260506175002 16 349 1.6 8.0 0.00 0.00 0.00 76 1018.7
20260506174502 16 352 1.6 6.4 0.00 0.00 0.00 76 1018.7
20260506174002 16 345 1.6 6.4 0.00 0.03 0.00 76 1018.7
20260506173502 16 342 1.6 6.4 0.00 0.03 0.00 77 1018.7
20260506173002 16 333 1.6 6.4 0.00 0.03 0.00 77 1018.7
20260506172502 16 315 1.6 6.4 0.00 0.03 0.00 78 1018.7
20260506172002 15 326 1.6 12.9 0.00 0.03 0.00 78 1018.7
20260506171523 15 343 1.6 12.9 0.00 0.03 0.00 78 1018.7
20260506171002 15 344 1.6 8.0 0.00 0.03 0.00 79 1018.7
20260506170523 15 348 1.6 6.4 0.00 0.03 0.00 80 1018.7
20260506170002 15 349 1.6 6.4 0.00 0.03 0.00 80 1018.7
20260506165502 15 351 1.6 6.4 0.00 0.03 0.00 81 1018.7
20260506165002 15 353 1.6 6.4 0.00 0.03 0.00 82 1018.7
20260506164523 14 354 1.6 8.0 0.00 0.03 0.00 83 1018.7
20260506164002 14 355 3.2 8.0 0.00 0.03 0.00 83 1018.7
20260506163502 14 353 3.2 8.0 0.00 0.03 0.00 84 1018.7
20260506163023 14 352 3.2 8.0 0.00 0.05 0.00 86 1018.7
20260506162502 13 7 1.6 6.4 0.00 0.08 0.00 87 1018.7
20260506162002 13 29 0.0 4.8 0.00 0.10 0.00 87 1018.7
20260506161502 13 329 0.0 1.6 0.00 0.10 0.00 88 1018.7
20260506161002 13 329 0.0 1.6 0.00 0.13 0.00 89 1018.7
20260506160502 12 329 0.0 1.6 0.00 0.15 0.00 89 1018.7
20260506160002 12 329 0.0 1.6 0.00 0.15 0.00 89 1018.7
20260506155502 12 329 0.0 1.6 0.00 0.15 0.00 89 1018.7
20260506155002 12 0 0.0 0.0 0.00 0.15 0.00 89 1018.7
20260506154502 12 0 0.0 0.0 0.00 0.15 0.00 89 1018.7
20260506154002 12 329 1.6 4.8 0.00 0.15 0.00 89 1018.7
20260506153502 12 329 1.6 4.8 0.00 0.15 0.00 89 1018.7
20260506153023 12 334 1.6 6.4 0.00 0.15 0.00 90 1018.7
20260506152523 11 334 1.6 6.4 0.00 0.15 0.00 90 1018.7
20260506152002 11 334 0.0 4.8 0.00 0.15 0.00 90 1018.7
20260506151502 11 0 0.0 0.0 0.00 0.15 0.00 90 1018.7
20260506151002 11 0 0.0 0.0 0.00 0.15 0.00 90 1018.7
20260506150502 11 0 0.0 0.0 0.00 0.15 0.00 90 1018.7
20260506150002 11 0 0.0 0.0 0.00 0.15 0.00 90 1018.7
20260506145502 11 0 0.0 0.0 0.00 0.15 0.00 90 1018.7
20260506145002 11 0 0.0 0.0 0.00 0.15 0.00 90 1018.7
20260506144502 11 0 0.0 0.0 0.00 0.15 0.00 90 1018.7
20260506144002 11 0 0.0 0.0 0.00 0.15 0.00 90 1018.7
20260506143502 11 0 0.0 0.0 0.00 0.15 0.00 90 1018.7
20260506143002 11 0 0.0 0.0 0.00 0.15 0.00 91 1018.7
20260506142502 11 0 0.0 0.0 0.00 0.15 0.00 91 1018.7
20260506142002 11 0 0.0 0.0 0.00 0.15 0.00 90 1018.7
20260506141502 11 0 0.0 0.0 0.00 0.15 0.00 90 1018.7
20260506141002 11 0 0.0 0.0 0.00 0.15 0.00 90 1018.7
20260506140502 11 0 0.0 0.0 0.00 0.15 0.00 90 1018.7
20260506140023 11 0 0.0 0.0 0.00 0.15 0.00 90 1018.7
20260506135523 11 0 0.0 0.0 0.00 0.15 0.00 90 1018.7
20260506135002 11 0 0.0 0.0 0.00 0.15 0.00 90 1018.7
20260506134502 11 338 0.0 1.6 0.00 0.15 0.00 90 1018.7
20260506134002 11 338 0.0 1.6 0.00 0.15 0.00 90 1018.7
20260506133502 11 338 0.0 1.6 0.00 0.15 0.00 90 1018.7
20260506133002 11 338 0.0 3.2 0.00 0.15 0.00 90 1018.7
20260506132523 11 338 0.0 4.8 0.00 0.15 0.00 90 1018.7
20260506132002 11 338 0.0 4.8 0.00 0.15 0.00 90 1018.7
20260506131502 11 0 0.0 0.0 0.00 0.15 0.00 90 1018.7
20260506131002 11 0 0.0 0.0 0.00 0.15 0.00 90 1018.7
20260506130503 11 0 0.0 0.0 0.00 0.15 0.00 90 1018.7
20260506130003 11 0 0.0 0.0 0.00 0.15 0.00 90 1018.7
20260506125502 11 0 0.0 0.0 0.00 0.15 0.00 90 1018.7
20260506125023 11 0 0.0 0.0 0.00 0.15 0.00 90 1018.7
20260506124502 11 0 0.0 0.0 0.00 0.15 0.00 90 1018.7
20260506124002 11 0 0.0 0.0 0.00 0.15 0.00 90 1018.7
20260506123502 11 0 0.0 0.0 0.00 0.15 0.00 90 1018.7
20260506123002 11 0 0.0 0.0 0.00 0.15 0.00 90 1018.7
20260506122502 11 0 0.0 0.0 0.00 0.15 0.00 90 1018.7
20260506122002 11 0 0.0 0.0 0.00 0.15 0.00 90 1018.7
20260506121502 11 0 0.0 0.0 0.00 0.15 0.00 90 1018.7
20260506121024 11 0 0.0 0.0 0.00 0.15 0.00 90 1018.7
20260506120502 11 0 0.0 0.0 0.00 0.18 0.00 90 1018.7
20260506120002 11 331 0.0 4.8 0.00 0.18 0.00 90 1018.7
20260506115502 11 331 0.0 4.8 0.00 0.18 0.00 90 1018.7
20260506115002 11 329 0.0 1.6 0.00 0.18 0.00 90 1018.7
20260506114502 11 329 0.0 3.2 0.00 0.18 0.00 90 1018.7
20260506114002 11 329 0.0 3.2 0.00 0.18 0.00 90 1018.7
20260506113523 11 329 0.0 3.2 0.00 0.18 0.00 90 1018.7
20260506113002 11 329 0.0 3.2 0.00 0.18 0.00 90 1018.7
20260506112502 11 329 0.0 1.6 0.00 0.20 0.00 90 1018.7
20260506112002 11 329 0.0 1.6 0.00 0.20 0.00 90 1018.7
20260506111502 11 329 0.0 3.2 0.00 0.20 0.00 90 1018.7
20260506111002 11 329 0.0 3.2 0.00 0.20 0.00 90 1018.7
20260506110502 11 329 0.0 1.6 0.00 0.20 0.00 90 1018.7
20260506110002 11 329 0.0 1.6 0.00 0.20 0.00 90 1014.3
20260506105502 11 329 0.0 1.6 0.00 0.20 0.00 90 1014.3
20260506105002 11 328 0.0 3.2 0.00 0.20 0.00 90 1014.3
20260506104502 11 328 0.0 3.2 0.00 0.20 0.00 90 1014.3
20260506104002 11 0 0.0 0.0 0.00 0.20 0.00 90 1014.3
20260506103502 11 0 0.0 0.0 0.00 0.20 0.00 90 1014.3
20260506103002 11 0 0.0 0.0 0.00 0.20 0.00 90 1014.3
20260506102502 11 0 0.0 0.0 0.00 0.20 0.00 90 1014.3
20260506102002 11 0 0.0 0.0 0.00 0.23 0.00 90 1014.3
20260506101502 11 0 0.0 0.0 0.00 0.23 0.00 90 1014.3
20260506101002 11 0 0.0 0.0 0.00 0.23 0.00 90 1014.3
20260506100502 11 0 0.0 0.0 0.00 0.25 0.00 90 1014.3
20260506100003 11 0 0.0 0.0 0.00 0.25 0.00 90 1014.3
20260506095502 11 0 0.0 0.0 0.00 0.25 0.00 90 1014.3
20260506095002 11 0 0.0 0.0 0.00 0.25 0.00 90 1014.3
20260506094523 11 0 0.0 0.0 0.00 0.25 0.00 90 1014.3
20260506094002 11 0 0.0 0.0 0.00 0.25 0.00 90 1014.3
20260506093502 11 0 0.0 0.0 0.00 0.25 0.00 90 1014.3
20260506093002 11 0 0.0 0.0 0.00 0.25 0.00 90 1014.3
20260506092502 11 0 0.0 0.0 0.00 0.25 0.00 90 1014.3
20260506092003 11 0 0.0 0.0 0.00 0.25 0.00 90 1014.3
20260506091502 11 0 0.0 0.0 0.00 0.25 0.00 90 1014.3
20260506091002 11 0 0.0 0.0 0.00 0.25 0.00 90 1014.3
20260506090502 11 0 0.0 0.0 0.00 0.25 0.00 90 1014.3
20260506090002 11 0 0.0 0.0 0.00 0.25 0.00 90 1014.3
20260506085502 11 0 0.0 0.0 0.00 0.25 0.00 90 1014.3
20260506085024 11 0 0.0 0.0 0.00 0.25 0.00 90 1014.3
20260506084502 11 0 0.0 0.0 0.00 0.25 0.00 90 1014.3
20260506084002 11 0 0.0 0.0 0.00 0.25 0.00 90 1014.3
20260506083502 11 0 0.0 0.0 0.00 0.25 0.00 90 1014.3
20260506083002 11 0 0.0 0.0 0.00 0.25 0.00 90 1014.3
20260506082502 11 0 0.0 0.0 0.00 0.25 0.00 90 1014.3